GW2259 Weather Reports


Display with metric or nautical units.
time (UTC)temp
F
wind
direction
speed
MPH
gust
MPH
rain 1hr
in
rain 24hr
in
rain mn
in
humidity
%
barometer
mb
20260506073035 64 0 0.0 1.0 0.00 0.00 0.00 86 1008.6
20260506071536 65 0 1.0 2.0 0.00 0.00 0.00 85 1008.8
20260506061535 70 0 0.0 1.0 0.00 0.00 0.00 86 1008.5
20260506044543 72 204 1.0 2.0 0.00 0.00 0.00 81 1008.6
20260506043035 72 162 0.0 2.0 0.00 0.00 0.00 80 1008.5
20260506041534 73 264 0.0 5.0 0.00 0.00 0.00 79 1008.6
20260506040035 72 252 1.0 3.0 0.00 0.00 0.00 80 1008.6
20260506034538 73 250 1.0 4.0 0.00 0.00 0.00 80 1008.4
20260506033038 73 165 3.0 5.0 0.00 0.00 0.00 76 1008.2
20260506031537 74 204 2.0 5.0 0.00 0.00 0.00 74 1008.0
20260506030055 74 197 3.0 5.0 0.00 0.00 0.00 71 1007.8
20260506024547 73 182 2.0 3.0 0.00 0.00 0.00 73 1007.8
20260506023034 75 114 1.0 2.0 0.00 0.00 0.00 68 1007.5
20260506021537 76 0 0.0 4.0 0.00 0.00 0.00 66 1007.1
20260506020035 78 146 0.0 2.0 0.00 0.00 0.00 58 1006.9
20260506014539 78 141 1.0 2.0 0.00 0.00 0.00 59 1006.7
20260506013036 79 135 1.0 2.0 0.00 0.00 0.00 61 1006.4
20260506011539 80 85 1.0 2.0 0.00 0.00 0.00 55 1006.3
20260506010043 84 181 0.0 0.0 0.00 0.00 0.00 50 1006.0
20260506004545 88 180 1.0 2.0 0.00 0.00 0.00 43 1005.7
20260506003039 92 0 0.0 2.0 0.00 0.00 0.00 41 1005.8
20260506001536 92 202 1.0 3.0 0.00 0.00 0.00 37 1005.8
20260506000033 95 197 1.0 3.0 0.00 0.00 0.00 35 1006.0
20260505234538 97 0 0.0 2.0 0.00 0.00 0.00 33 1006.0
20260505233035 93 232 0.0 3.0 0.00 0.00 0.00 38 1006.0
20260505231533 89 281 0.0 4.0 0.00 0.00 0.00 39 1006.0
20260505230045 91 260 1.0 4.0 0.00 0.00 0.00 39 1005.9
20260505224537 90 274 2.0 7.0 0.00 0.00 0.00 36 1006.2
20260505223036 90 297 3.0 8.0 0.00 0.00 0.00 35 1006.3
20260505221533 90 268 3.0 7.0 0.00 0.00 0.00 36 1006.0
20260505220040 91 268 6.0 10.0 0.00 0.00 0.00 35 1006.3
20260505214535 91 315 5.0 11.0 0.00 0.00 0.00 37 1006.4
20260505213043 91 267 3.0 9.0 0.00 0.00 0.00 35 1006.3
20260505211542 90 278 4.0 10.0 0.00 0.00 0.00 38 1006.3
20260505210033 90 279 3.0 8.0 0.00 0.00 0.00 35 1006.3
20260505204536 90 281 2.0 7.0 0.00 0.00 0.00 42 1006.5
20260505203041 89 198 2.0 9.0 0.00 0.00 0.00 43 1006.4
20260505201536 89 251 3.0 9.0 0.00 0.00 0.00 41 1006.7
20260505200037 88 300 4.0 8.0 0.00 0.00 0.00 39 1006.9
20260505194535 89 255 4.0 9.0 0.00 0.00 0.00 42 1007.0
20260505193044 89 240 5.0 8.0 0.00 0.00 0.00 42 1007.1
20260505191540 88 199 3.0 10.0 0.00 0.00 0.00 41 1007.0
20260505190040 87 278 3.0 11.0 0.00 0.00 0.00 36 1007.3
20260505184536 87 217 4.0 7.0 0.00 0.00 0.00 46 1007.3
20260505183035 86 268 4.0 10.0 0.00 0.00 0.00 49 1007.7
20260505181533 85 208 3.0 6.0 0.00 0.00 0.00 56 1008.0
20260505180043 85 237 3.0 9.0 0.00 0.00 0.00 61 1008.4
20260505174535 83 240 3.0 12.0 0.00 0.00 0.00 62 1008.4
20260505173035 82 264 6.0 12.0 0.00 0.00 0.00 64 1008.6
20260505171534 81 272 6.0 12.0 0.00 0.00 0.00 66 1008.8
20260505170038 80 200 7.0 14.0 0.00 0.00 0.00 68 1008.8
20260505164540 79 207 6.0 10.0 0.00 0.00 0.00 70 1008.8
20260505163040 78 213 7.0 12.0 0.00 0.00 0.00 73 1008.6
20260505161535 76 244 7.0 12.0 0.00 0.00 0.00 75 1008.5
20260505153042 74 255 8.0 15.0 0.00 0.00 0.00 78 1008.6
20260505151538 73 226 10.0 19.0 0.00 0.00 0.00 79 1008.7
20260505124533 68 243 7.0 11.0 0.00 0.00 0.00 88 1007.7
20260505123042 68 229 6.0 12.0 0.00 0.00 0.00 89 1007.5
20260505121537 67 216 5.0 9.0 0.00 0.00 0.00 90 1007.5
20260505120048 66 219 5.0 8.0 0.00 0.00 0.00 90 1007.1
20260505114535 66 238 4.0 7.0 0.00 0.00 0.00 90 1006.8
20260505113031 66 216 4.0 9.0 0.00 0.00 0.00 90 1006.7
20260505111536 66 214 4.0 6.0 0.00 0.00 0.00 89 1006.7
20260505101537 66 235 4.0 8.0 0.00 0.00 0.00 88 1006.7
20260505100037 66 237 3.0 6.0 0.00 0.00 0.00 88 1006.7
20260505094630 66 220 3.0 6.0 0.00 0.00 0.00 88 1007.0
20260505093032 66 230 3.0 7.0 0.00 0.00 0.00 87 1007.1
20260505091537 65 219 3.0 5.0 0.00 0.00 0.00 88 1007.1
20260505090035 65 222 1.0 3.0 0.00 0.00 0.00 88 1007.2
20260505084552 65 224 1.0 3.0 0.00 0.00 0.00 87 1007.3
20260505083057 66 236 1.0 4.0 0.00 0.00 0.00 86 1007.4
20260505081552 66 215 1.0 5.0 0.00 0.00 0.00 85 1007.5